This is the latest recevied weather packets stored in our database for station/object YB2VNE-13. If no packets are shown the sender has not sent any weather packets the latest 10 day(s).
| Time | Temp. | Humidity | Pressure | Rain* | Wind** | Luminosity | Snow |
|---|---|---|---|---|---|---|---|
| 1777093580 | 31.67° C | 67% | 994 hPa | - | - | 0 W/m² | - |
| 1777093270 | 31.11° C | 69% | 994 hPa | - | - | 0 W/m² | - |
| 1777092961 | 31.11° C | 70% | 994 hPa | - | - | 0 W/m² | - |
| 1777092650 | 31.11° C | 71% | 994 hPa | - | - | 0 W/m² | - |
| 1777092340 | 31.11° C | 71% | 994 hPa | - | - | 0 W/m² | - |
| 1777092030 | 30.56° C | 71% | 994 hPa | - | - | 0 W/m² | - |
| 1777091720 | 30.56° C | 74% | 994 hPa | - | - | 0 W/m² | - |
| 1777091410 | 31.11° C | 75% | 994 hPa | - | - | 0 W/m² | - |
| 1777091100 | 30.56° C | 75% | 994 hPa | - | - | 0 W/m² | - |
| 1777090790 | 30.56° C | 78% | 994 hPa | - | - | 0 W/m² | - |
| 1777090480 | 30.56° C | 78% | 994 hPa | - | - | 0 W/m² | - |
| 1777090170 | 30.56° C | 79% | 994 hPa | - | - | 0 W/m² | - |
| 1777089860 | 30° C | 81% | 994 hPa | - | - | 0 W/m² | - |
| 1777089550 | 30° C | 82% | 995 hPa | - | - | 0 W/m² | - |
| 1777089240 | 30.56° C | 80% | 995 hPa | - | - | 0 W/m² | - |
| 1777088931 | 30° C | 82% | 995 hPa | - | - | 0 W/m² | - |
| 1777088620 | 30° C | 83% | 995 hPa | - | - | 0 W/m² | - |
| 1777088310 | 30° C | 85% | 995 hPa | - | - | 0 W/m² | - |
| 1777088000 | 30° C | 87% | 995 hPa | - | - | 0 W/m² | - |
| 1777087690 | 30° C | 86% | 995 hPa | - | - | 0 W/m² | - |
| 1777087380 | 30° C | 85% | 995 hPa | - | - | 0 W/m² | - |
| 1777087070 | 30° C | 87% | 995 hPa | - | - | 0 W/m² | - |
* Rain since midnight (hover to see other rain measurements)
** Current wind speed in m/s (hover to see current wind gust speed)